�N����,����,�g�[���i�L�b�`���j���x,�g�[�����x,��g�[���i���ʏ��j���x,����
 2002/10/20, 0:00,22.4,68,20.3,22.1
 2002/10/20, 0:15,22.4,69,20.4,22.1
 2002/10/20, 0:30,22.3,69,20.1,21
 2002/10/20, 0:45,22.1,70,20.3,21
 2002/10/20, 1:00,22,70,20.3,21
 2002/10/20, 1:15,22,70,20.1,21.1
 2002/10/20, 1:30,21.9,70,20.3,21.1
 2002/10/20, 1:45,21.8,71,20.2,21.1
 2002/10/20, 2:00,21.8,71,19.9,21.1
 2002/10/20, 2:15,21.8,70,20.3,21.2
 2002/10/20, 2:30,21.7,71,20.3,21.2
 2002/10/20, 2:45,21.7,71,20.2,21.2
 2002/10/20, 3:00,21.6,71,20.2,21.2
 2002/10/20, 3:15,21.6,71,20.1,21.3
 2002/10/20, 3:30,21.5,71,20,21.3
 2002/10/20, 3:45,21.6,70,20,21.3
 2002/10/20, 4:00,21.5,71,19.7,21.3
 2002/10/20, 4:15,21.4,71,19.9,21.3
 2002/10/20, 4:30,21.5,70,19.8,21.4
 2002/10/20, 4:45,21.4,70,19.8,21.4
 2002/10/20, 5:00,21.4,70,19.6,21.4
 2002/10/20, 5:15,21.4,70,19.6,21.4
 2002/10/20, 5:30,21.4,70,19.6,21.4
 2002/10/20, 5:45,21.4,70,19.4,21.4
 2002/10/20, 6:00,21.4,70,19.8,20.4
 2002/10/20, 6:15,21.3,70,19.9,20.4
 2002/10/20, 6:30,21.4,70,19.6,20.5
 2002/10/20, 6:45,21.4,70,20.2,20.5
 2002/10/20, 7:00,21.4,70,19.9,20.5
 2002/10/20, 7:15,21.8,70,19.8,20.6
 2002/10/20, 7:30,21.8,69,20.1,20.6
 2002/10/20, 7:45,21.9,68,20.1,20.6
 2002/10/20, 8:00,21.9,68,20.2,20.6
 2002/10/20, 8:15,22.1,68,20.3,20.7
 2002/10/20, 8:30,22,68,20.7,19.9
 2002/10/20, 8:45,21.9,68,20.6,19.9
 2002/10/20, 9:00,22,68,20.6,19.9
 2002/10/20, 9:15,21.9,69,20.8,20
 2002/10/20, 9:30,21.8,69,21,20
 2002/10/20, 9:45,21.7,70,21.3,20
 2002/10/20,10:00,21.9,69,21.2,20
 2002/10/20,10:15,21.9,68,21.4,20.1
 2002/10/20,10:30,22.1,68,21.5,20.1
 2002/10/20,10:45,22.2,69,21.7,20.1
 2002/10/20,11:00,22.1,69,21.9,20
 2002/10/20,11:15,22.3,68,22,20
 2002/10/20,11:30,22.4,68,22,20
 2002/10/20,11:45,22.4,68,22.1,20.1
 2002/10/20,12:00,22.2,69,22,20.1
 2002/10/20,12:15,22.4,69,22,20.2
 2002/10/20,12:30,22.4,69,22,20.2
 2002/10/20,12:45,22.3,70,22.1,20.2
 2002/10/20,13:00,22.3,73,22,20.3
 2002/10/20,13:15,22.2,73,21.8,20.3
 2002/10/20,13:30,22.2,74,21.8,20.4
 2002/10/20,13:45,22.2,74,21.7,20.4
 2002/10/20,14:00,22.1,74,21.7,20.4
 2002/10/20,14:15,22.2,75,21.7,20.5
 2002/10/20,14:30,22.5,78,21.7,20.6
 2002/10/20,14:45,22.5,75,21.5,20.6
 2002/10/20,15:00,22.5,74,21.4,20.6
 2002/10/20,15:15,22.5,73,21.3,20.7
 2002/10/20,15:30,22.4,73,21.1,20.3
 2002/10/20,15:45,22.2,74,20.9,20.3
 2002/10/20,16:00,22.3,72,21,20.3
 2002/10/20,16:15,22.3,73,20.6,20.4
 2002/10/20,16:30,22.5,73,20.7,20.4
 2002/10/20,16:45,22.6,71,20.6,20.4
 2002/10/20,17:00,22.5,71,20.8,20.5
 2002/10/20,17:15,22.6,71,20.6,20.5
 2002/10/20,17:30,22.6,70,21.1,20.5
 2002/10/20,17:45,22.5,71,20.9,20.5
 2002/10/20,18:00,22.5,72,21.5,20.6
 2002/10/20,18:15,22.5,71,22.1,20.6
 2002/10/20,18:30,22.7,71,21.1,20.7
 2002/10/20,18:45,22.9,70,20.9,20.7
 2002/10/20,19:00,22.9,69,21.1,20.8
 2002/10/20,19:15,23.1,72,21.1,20.8
 2002/10/20,19:30,23,70,20.9,20.8
 2002/10/20,19:45,23,69,20.8,20.9
 2002/10/20,20:00,22.8,69,21,20.9
 2002/10/20,20:15,22.7,69,20.7,21
 2002/10/20,20:30,22.7,69,20.6,21
 2002/10/20,20:45,22.7,69,20.5,21
 2002/10/20,21:00,22.6,69,20.7,21.1
 2002/10/20,21:15,22.6,68,20.7,21.1
 2002/10/20,21:30,22.4,68,20.6,21
 2002/10/20,21:45,22.5,67,20.8,21
 2002/10/20,22:00,22.5,68,21,21
 2002/10/20,22:15,22.4,69,20.6,21.1
 2002/10/20,22:30,22.3,68,20.5,21.1
 2002/10/20,22:45,22.4,68,20.3,21.1
 2002/10/20,23:00,22.3,68,20.2,21.1
 2002/10/20,23:15,22.2,68,20,21.1
 2002/10/20,23:30,22.1,68,19.7,21.1
 2002/10/20,23:45,22,69,19.8,21.2
 2002/10/21, 0:00,21.8,69,19.9,20.2
 2002/10/21, 0:15,21.8,69,20.1,20.2
 2002/10/21, 0:30,21.7,69,19.9,20.2
 2002/10/21, 0:45,21.6,69,19.6,20.3
 2002/10/21, 1:00,21.6,69,19.7,20.3
 2002/10/21, 1:15,21.6,69,19.6,20.3
 2002/10/21, 1:30,21.4,69,19.6,20.4
 2002/10/21, 1:45,21.4,69,19.4,20.4
 2002/10/21, 2:00,21.3,69,19.4,20.4
 2002/10/21, 2:15,21.3,69,19.4,20.5
 2002/10/21, 2:30,21.2,69,19.5,20.5
 2002/10/21, 2:45,21.2,69,19.3,20.5
 2002/10/21, 3:00,21.2,69,19.4,20.6
 2002/10/21, 3:15,21,69,19.4,20.6
 2002/10/21, 3:30,21,69,19.3,20.6
 2002/10/21, 3:45,21,69,19.4,20.6
 2002/10/21, 4:00,20.9,70,19.1,20.7
 2002/10/21, 4:15,20.9,70,19.1,20.7
 2002/10/21, 4:30,20.9,70,19,20.7
 2002/10/21, 4:45,20.9,70,19,20.7
 2002/10/21, 5:00,20.8,70,18.8,20.7
 2002/10/21, 5:15,20.8,70,18.8,20.8
 2002/10/21, 5:30,20.6,70,18.7,20.8
 2002/10/21, 5:45,20.7,70,18.4,20.8
 2002/10/21, 6:00,20.6,70,18.6,19.6
 2002/10/21, 6:15,20.6,70,18.6,19.6
 2002/10/21, 6:30,20.7,70,18.5,19.6
 2002/10/21, 6:45,20.7,70,18.9,19.6
 2002/10/21, 7:00,20.9,70,18.7,19.7
 2002/10/21, 7:15,20.9,70,18.6,19.7
 2002/10/21, 7:30,20.9,69,18.9,19.7
 2002/10/21, 7:45,20.9,70,18.5,19.7
 2002/10/21, 8:00,20.7,70,18.4,19.4
 2002/10/21, 8:15,20.7,70,18.4,19.3
 2002/10/21, 8:30,20.5,70,18.1,19.4
 2002/10/21, 8:45,20.6,70,17.9,19.4
 2002/10/21, 9:00,20.6,70,18.4,19.4
 2002/10/21, 9:15,20.6,71,18.7,19.4
 2002/10/21, 9:30,20.6,71,18.7,19.5
 2002/10/21, 9:45,20.6,71,18.6,19.5
 2002/10/21,10:00,20.6,71,18.7,19.5
 2002/10/21,10:15,20.4,72,18.9,19.5
 2002/10/21,10:30,20.6,72,19,19.1
 2002/10/21,10:45,20.3,72,19.1,19.1
 2002/10/21,11:00,20.3,73,19.1,19
 2002/10/21,11:15,20.1,73,19.2,18.9
 2002/10/21,11:30,20.2,73,19.3,18.9
 2002/10/21,11:45,20.2,73,19.5,19
 2002/10/21,12:00,20.3,73,19.5,19
 2002/10/21,12:15,20.3,72,19.6,19
 2002/10/21,12:30,20.2,72,19.6,19.1
 2002/10/21,12:45,20.3,72,19.8,19.1
 2002/10/21,13:00,20.4,71,19.9,19.1
 2002/10/21,13:15,20.6,70,19.9,19.2
 2002/10/21,13:30,20.6,69,20,19.2
 2002/10/21,13:45,20.7,69,20.2,19.2
 2002/10/21,14:00,20.5,68,20.1,19.3
 2002/10/21,14:15,20.5,68,19.9,19.3
 2002/10/21,14:30,20.6,67,19.9,19.4
 2002/10/21,14:45,20.8,66,20.2,19.1
 2002/10/21,15:00,21.1,65,20.5,19.2
 2002/10/21,15:15,21.1,64,20.7,19.2
 2002/10/21,15:30,21.3,64,20.6,19.2
 2002/10/21,15:45,21.7,65,20.7,19.3
 2002/10/21,16:00,21.7,64,20.6,19.3
 2002/10/21,16:15,21.7,64,20.6,19.3
 2002/10/21,16:30,21.7,63,20.4,19.4
 2002/10/21,16:45,21.6,63,20.3,19.4
 2002/10/21,17:00,21.4,64,19.9,19.5
 2002/10/21,17:15,21.3,64,19.7,19.5
 2002/10/21,17:30,21.3,64,19.4,19.6
 2002/10/21,17:45,21.3,63,19.1,19.7
 2002/10/21,18:00,21.2,64,19,19.7
 2002/10/21,18:15,21.2,65,19.2,19.8
 2002/10/21,18:30,21.4,64,19.2,19.8
 2002/10/21,18:45,21.5,65,19.3,19.9
 2002/10/21,19:00,21.5,65,18.5,19.9
 2002/10/21,19:15,21.8,66,18.1,20
 2002/10/21,19:30,21.8,66,18.5,20.1
 2002/10/21,19:45,21.7,64,18.5,20.1
 2002/10/21,20:00,21.7,64,18.7,20.2
 2002/10/21,20:15,21.6,64,18.6,20.3
 2002/10/21,20:30,21.5,65,18.7,20.3
 2002/10/21,20:45,21.6,64,19.2,20.4
 2002/10/21,21:00,21.4,63,18.4,20.4
 2002/10/21,21:15,21.3,63,17.5,20.5
 2002/10/21,21:30,21.3,63,17.9,20.5
 2002/10/21,21:45,21.2,63,17.4,20.6
 2002/10/21,22:00,21.1,63,18.1,20.6
 2002/10/21,22:15,21.1,65,17.2,20.6
 2002/10/21,22:30,20.9,66,16.9,20.6
 2002/10/21,22:45,20.9,66,16.3,20.7
 2002/10/21,23:00,20.9,66,16.8,20.7
 2002/10/21,23:15,20.8,65,17,20.7
 2002/10/21,23:30,20.6,66,16.5,20.7
 2002/10/21,23:45,20.6,66,16.1,20.7
 2002/10/22, 0:00,20.5,66,16,19.5
 2002/10/22, 0:15,20.4,66,15.2,19.4
 2002/10/22, 0:30,20.3,65,15.6,19.4
 2002/10/22, 0:45,20.1,66,15.5,19.4
 2002/10/22, 1:00,20,65,14.6,19.4
 2002/10/22, 1:15,19.9,66,14.3,19.5
 2002/10/22, 1:30,19.9,65,14.6,19.5
 2002/10/22, 1:45,19.7,65,14.4,19.5
 2002/10/22, 2:00,19.6,65,14.8,19.5
 2002/10/22, 2:15,19.4,65,14.5,19.5
 2002/10/22, 2:30,19.4,65,14.2,19.6
 2002/10/22, 2:45,19.4,65,14.3,19.6
 2002/10/22, 3:00,19.2,65,14.5,19.6
 2002/10/22, 3:15,19.1,64,15.3,19.6
 2002/10/22, 3:30,19,64,16.2,19.6
 2002/10/22, 3:45,19,63,16.4,19.5
 2002/10/22, 4:00,19,63,15.6,19.5
 2002/10/22, 4:15,18.9,64,14.8,19.5
 2002/10/22, 4:30,18.9,64,14.2,19.5
 2002/10/22, 4:45,18.9,64,15.2,19.5
 2002/10/22, 5:00,18.8,64,14.8,19.5
 2002/10/22, 5:15,18.8,64,13.9,19.5
 2002/10/22, 5:30,18.7,64,13.9,19.4
 2002/10/22, 5:45,18.6,64,13.8,19.4
 2002/10/22, 6:00,18.6,64,14.6,19.4
 2002/10/22, 6:15,18.6,64,14.3,19.4
 2002/10/22, 6:30,18.8,64,14.5,18.1
 2002/10/22, 6:45,18.6,65,15.3,18.1
 2002/10/22, 7:00,18.9,63,16.1,18.1
 2002/10/22, 7:15,19.2,62,16.2,18.1
 2002/10/22, 7:30,19.1,62,16.2,18.1
 2002/10/22, 7:45,19.1,62,16.5,18.1
 2002/10/22, 8:00,19.1,63,16.5,18.1
 2002/10/22, 8:15,19.5,62,16.8,18
 2002/10/22, 8:30,19.5,62,17.4,18
 2002/10/22, 8:45,20,63,17.8,18
 2002/10/22, 9:00,20,63,17.9,18
 2002/10/22, 9:15,19.8,61,18,18.1
 2002/10/22, 9:30,19,60,18,18.1
 2002/10/22, 9:45,18.7,60,17.8,18.1
 2002/10/22,10:00,18.9,60,17.9,18.1
 2002/10/22,10:15,19.1,60,17.9,18.1
 2002/10/22,10:30,19.6,59,18.3,18.2
 2002/10/22,10:45,20.1,57,18.6,18.2
 2002/10/22,11:00,20.4,57,18.9,18.2
 2002/10/22,11:15,20.6,56,19.2,18.2
 2002/10/22,11:30,20.7,53,19.3,18.3
 2002/10/22,11:45,20.9,53,19.7,18.3
 2002/10/22,12:00,20.6,55,19.6,18.3
 2002/10/22,12:15,20.6,54,19.9,18.2
 2002/10/22,12:30,21,54,20.4,18.2
 2002/10/22,12:45,21,54,20.3,18.2
 2002/10/22,13:00,20.9,54,20.1,18.2
 2002/10/22,13:15,20.5,55,19.9,18.3
 2002/10/22,13:30,20.5,56,19.9,18.3
 2002/10/22,13:45,20.5,55,19.6,18.3
 2002/10/22,14:00,20.4,56,19.6,18.4
 2002/10/22,14:15,20.5,55,19.6,18.4
 2002/10/22,14:30,20.7,56,19.4,18.4
 2002/10/22,14:45,20.6,56,19.3,18.4
 2002/10/22,15:00,20.6,56,19.4,18.5
 2002/10/22,15:15,20.5,55,19.2,18.5
 2002/10/22,15:30,20.5,55,19.3,18.5
 2002/10/22,15:45,20.4,54,19.2,18.6
 2002/10/22,16:00,20.4,54,19.1,18.6
 2002/10/22,16:15,20.6,55,19.1,18.6
 2002/10/22,16:30,20.4,54,19,18.7
 2002/10/22,16:45,20.3,53,18.7,18.7
 2002/10/22,17:00,20.1,53,18.5,18.8
 2002/10/22,17:15,20,54,18.3,18.8
 2002/10/22,17:30,20.1,54,18.3,18.8
 2002/10/22,17:45,20,54,18.1,18.9
 2002/10/22,18:00,19.9,54,18.1,18.9
 2002/10/22,18:15,19.7,54,17.8,18.9
 2002/10/22,18:30,20,56,18,19
 2002/10/22,18:45,20,56,17.5,19
 2002/10/22,19:00,20,54,17.9,19
 2002/10/22,19:15,20,55,18,19.1
 2002/10/22,19:30,20.1,57,18.3,19.1
 2002/10/22,19:45,20.3,57,17.9,19.1
 2002/10/22,20:00,20.2,56,17.6,19.1
 2002/10/22,20:15,20.2,56,17.4,19.2
 2002/10/22,20:30,20.2,56,16.9,19.2
 2002/10/22,20:45,20.1,55,17.4,19.2
 2002/10/22,21:00,20,55,17.5,19.2
 2002/10/22,21:15,19.9,55,17.5,19.2
 2002/10/22,21:30,19.8,55,16.6,19.3
 2002/10/22,21:45,19.7,55,16.6,19.3
 2002/10/22,22:00,19.8,55,17,19.3
 2002/10/22,22:15,19.7,54,17.6,19.3
 2002/10/22,22:30,19.6,55,17,19.3
 2002/10/22,22:45,19.6,57,16.5,18.6
 2002/10/22,23:00,19.5,58,16.3,18.6
 2002/10/22,23:15,19.5,58,15.6,18.7
 2002/10/22,23:30,19.4,58,15.9,18.7
 2002/10/22,23:45,19.2,58,15.5,18.7
 2002/10/23, 0:00,19.1,59,15.6,18.7
 2002/10/23, 0:15,19,59,16,18.7
 2002/10/23, 0:30,19,58,15.4,18.7
 2002/10/23, 0:45,18.9,59,15.8,18.8
 2002/10/23, 1:00,18.8,59,15.3,18.8
 2002/10/23, 1:15,18.7,59,15.4,18.8
 2002/10/23, 1:30,18.7,59,15,18.8
 2002/10/23, 1:45,18.6,60,14.9,18.8
 2002/10/23, 2:00,18.6,59,15.4,18.8
 2002/10/23, 2:15,18.6,59,15.3,18.8
 2002/10/23, 2:30,18.5,59,15.4,18.8
 2002/10/23, 2:45,18.4,58,15.4,18.8
 2002/10/23, 3:00,18.3,58,15.6,18.8
 2002/10/23, 3:15,18.3,58,15,18.8
 2002/10/23, 3:30,18.2,59,14.6,18.8
 2002/10/23, 3:45,18.2,59,14.9,18.8
 2002/10/23, 4:00,18.1,59,14.3,18.8
 2002/10/23, 4:15,18.1,59,14,18.8
 2002/10/23, 4:30,18.1,59,14.5,18.8
 2002/10/23, 4:45,17.9,59,15,18.8
 2002/10/23, 5:00,18,59,15.3,18.8
 2002/10/23, 5:15,18,60,14.8,18.8
 2002/10/23, 5:30,18,60,14.6,18.8
 2002/10/23, 5:45,18,60,14,18.8
 2002/10/23, 6:00,17.9,60,14,18.7
 2002/10/23, 6:15,18.1,60,15.2,17.7
 2002/10/23, 6:30,18.3,60,14.3,17.6
 2002/10/23, 6:45,18.2,60,13.7,17.6
 2002/10/23, 7:00,18.4,60,14.7,17.6
 2002/10/23, 7:15,18.5,59,15.1,17.6
 2002/10/23, 7:30,18.6,59,15.7,17.6
 2002/10/23, 7:45,18.6,58,16.1,17.7
 2002/10/23, 8:00,18.6,58,16.4,17.7
 2002/10/23, 8:15,18.7,58,16.3,17.7
 2002/10/23, 8:30,18.9,57,16.6,17.7
 2002/10/23, 8:45,19.1,56,16.8,17.7
 2002/10/23, 9:00,19.2,55,17.5,17.7
 2002/10/23, 9:15,19.1,55,18.1,17.7
 2002/10/23, 9:30,19.3,55,17.9,17.3
 2002/10/23, 9:45,19.2,54,18.2,17.3
 2002/10/23,10:00,19,54,18.6,17.4
 2002/10/23,10:15,18.9,55,18.6,17.4
 2002/10/23,10:30,19,54,18.4,17.4
 2002/10/23,10:45,19.2,54,18.7,17.4
 2002/10/23,11:00,18.9,55,18.7,17.5
 2002/10/23,11:15,19.5,53,19.1,17.5
 2002/10/23,11:30,19.1,52,19,17.5
 2002/10/23,11:45,19.4,51,19.1,17.5
 2002/10/23,12:00,19.5,52,19.6,17.6
 2002/10/23,12:15,20,50,20.2,17.6
 2002/10/23,12:30,20.2,50,20.6,17.6
 2002/10/23,12:45,20.1,50,20.6,17.7
 2002/10/23,13:00,20,51,20.5,17.7
 2002/10/23,13:15,19.9,50,20.5,17.8
 2002/10/23,13:30,19.9,51,20.4,17.9
 2002/10/23,13:45,20,51,19.8,17.9
 2002/10/23,14:00,20.2,52,20.1,17.9
 2002/10/23,14:15,20.2,51,19.8,17.9
 2002/10/23,14:30,20.2,51,19.7,18
 2002/10/23,14:45,20.3,52,19.7,18
 2002/10/23,15:00,20.2,52,19.4,18.1
 2002/10/23,15:15,20.2,53,19.1,18.1
 2002/10/23,15:30,20.1,54,19.1,18.1
 2002/10/23,15:45,20,54,18.9,18.2
 2002/10/23,16:00,19.8,54,19,18.2
 2002/10/23,16:15,19.8,54,19,18.3
 2002/10/23,16:30,19.9,55,18.8,18.3
 2002/10/23,16:45,20.1,54,18.6,18.3
 2002/10/23,17:00,19.9,54,18.4,18.4
 2002/10/23,17:15,19.9,54,18.2,18.4
 2002/10/23,17:30,19.7,55,18.1,18.5
 2002/10/23,17:45,19.7,55,18.1,18.5
 2002/10/23,18:00,19.7,55,18.3,18.5
 2002/10/23,18:15,19.6,55,18.7,18.5
 2002/10/23,18:30,19.7,56,18.3,18.5
 2002/10/23,18:45,19.7,56,18.6,18.6
 2002/10/23,19:00,20.3,55,18.2,18.6
 2002/10/23,19:15,20.5,58,18.2,18.6
 2002/10/23,19:30,20.3,56,17.9,18.7
 2002/10/23,19:45,20.2,54,17.7,18.7
 2002/10/23,20:00,20.2,54,17.3,18.7
 2002/10/23,20:15,20.1,54,17.8,18.8
 2002/10/23,20:30,19.9,53,17.9,18.8
 2002/10/23,20:45,19.9,54,17.6,18.8
 2002/10/23,21:00,19.9,54,17.4,18.9
 2002/10/23,21:15,19.9,54,17.5,18.9
 2002/10/23,21:30,19.8,54,17.7,19
 2002/10/23,21:45,19.9,55,17,19
 2002/10/23,22:00,19.7,56,17.2,19.1
 2002/10/23,22:15,19.6,56,18.3,19.1
 2002/10/23,22:30,19.5,58,17.9,19.1
 2002/10/23,22:45,19.4,59,17.5,19.2
 2002/10/23,23:00,19.2,60,17.3,19.2
 2002/10/23,23:15,19.3,60,16.9,18.5
 2002/10/23,23:30,19.2,61,16.1,18.5
 2002/10/23,23:45,19.1,62,15.4,18.5
 2002/10/24, 0:00,19,63,15,18.5
 2002/10/24, 0:15,19,63,15.1,18.5
 2002/10/24, 0:30,18.9,63,15.1,18.5
 2002/10/24, 0:45,18.9,63,15.1,18.5
 2002/10/24, 1:00,18.8,64,14.9,18.6
 2002/10/24, 1:15,18.7,64,14.9,18.6
 2002/10/24, 1:30,18.7,64,15,18.6
 2002/10/24, 1:45,18.6,64,14.9,18.6
 2002/10/24, 2:00,18.5,64,14.7,18.6
 2002/10/24, 2:15,18.6,64,14.2,18.6
 2002/10/24, 2:30,18.6,64,14.4,17.7
 2002/10/24, 2:45,18.6,64,14.2,17.7
 2002/10/24, 3:00,18.5,64,14,17.8
 2002/10/24, 3:15,18.5,64,14.4,17.8
 2002/10/24, 3:30,18.4,64,13.7,17.8
 2002/10/24, 3:45,18.3,64,14,17.9
 2002/10/24, 4:00,18.3,64,14.1,17.9
 2002/10/24, 4:15,18.2,63,14,17.9
 2002/10/24, 4:30,18.1,63,14.8,17.9
 2002/10/24, 4:45,18.1,63,14.3,18
 2002/10/24, 5:00,18.1,63,13.8,18
 2002/10/24, 5:15,18.1,63,13.9,18
 2002/10/24, 5:30,18.1,63,13.8,18
 2002/10/24, 5:45,18,63,13.7,18
 2002/10/24, 6:00,18,63,14.2,18.1
 2002/10/24, 6:15,18.2,62,13.8,18.1
 2002/10/24, 6:30,18.5,62,13.9,17.1
 2002/10/24, 6:45,18.5,63,14.3,17.1
 2002/10/24, 7:00,18.5,63,14.3,17.2
 2002/10/24, 7:15,18.6,62,14.3,17.2
 2002/10/24, 7:30,18.6,62,15.1,17.2
 2002/10/24, 7:45,18.9,62,15.6,17.2
 2002/10/24, 8:00,19,61,16.1,17.3
 2002/10/24, 8:15,19,62,16.1,17.3
 2002/10/24, 8:30,19.2,61,16.2,17.3
 2002/10/24, 8:45,19.5,60,17.1,17.3
 2002/10/24, 9:00,19.7,56,17.3,17.4
 2002/10/24, 9:15,19.9,57,17.4,17.4
 2002/10/24, 9:30,20.1,56,17.6,17.4
 2002/10/24, 9:45,20,50,18,17.4
 2002/10/24,10:00,19.9,50,18.4,17.5
 2002/10/24,10:15,20,50,18.6,17.5
 2002/10/24,10:30,20,50,18.9,17.5
 2002/10/24,10:45,20,49,19.1,17.5
 2002/10/24,11:00,19.8,50,19.1,17.5
 2002/10/24,11:15,20.1,48,19.3,17.6
 2002/10/24,11:30,19.8,49,18.8,17.6
 2002/10/24,11:45,19.9,51,19,17.6
 2002/10/24,12:00,19.9,52,19,17.7
 2002/10/24,12:15,19.9,53,19.1,17.7
 2002/10/24,12:30,20,53,19.7,17.7
 2002/10/24,12:45,20,51,20.3,17.8
 2002/10/24,13:00,20.3,49,21,17.8
 2002/10/24,13:15,20.2,50,21,17.8
 2002/10/24,13:30,20.2,50,20.8,17.9
 2002/10/24,13:45,20.5,50,21.2,17.9
 2002/10/24,14:00,20.4,50,20.8,18
 2002/10/24,14:15,20.1,51,20.7,18
 2002/10/24,14:30,20.4,51,20.7,18
 2002/10/24,14:45,20.3,51,20.6,18.1
 2002/10/24,15:00,20.6,51,20.6,18.1
 2002/10/24,15:15,20.5,50,20.2,18.2
 2002/10/24,15:30,20.6,49,20,18.2
 2002/10/24,15:45,20.8,50,20.1,18.3
 2002/10/24,16:00,21,50,19.9,18.3
 2002/10/24,16:15,21.2,50,19.8,18.3
 2002/10/24,16:30,21.1,51,19.8,18.4
 2002/10/24,16:45,21,53,19.2,18.4
 2002/10/24,17:00,20.6,56,18.7,18.5
 2002/10/24,17:15,20.5,56,17.8,18.5
 2002/10/24,17:30,20.3,57,17.2,18.5
 2002/10/24,17:45,20.1,57,17.2,18.6
 2002/10/24,18:00,20,56,17.8,18.6
 2002/10/24,18:15,19.9,55,17.9,18.6
 2002/10/24,18:30,20.2,57,17.9,18.7
 2002/10/24,18:45,20,55,17.8,18.7
 2002/10/24,19:00,20,56,18.1,18.8
 2002/10/24,19:15,20.2,57,17.8,18.8
 2002/10/24,19:30,20.3,58,17.7,18.8
 2002/10/24,19:45,20.2,58,18,18.9
 2002/10/24,20:00,20.1,57,17.6,18.9
 2002/10/24,20:15,19.9,56,17.8,18.9
 2002/10/24,20:30,19.7,56,17.6,18.9
 2002/10/24,20:45,19.6,56,17.9,19
 2002/10/24,21:00,19.7,56,18.3,19
 2002/10/24,21:15,19.7,56,17.6,19
 2002/10/24,21:30,19.6,56,17.5,19
 2002/10/24,21:45,19.5,56,17.1,19.1
 2002/10/24,22:00,19.5,56,16.8,19.1
 2002/10/24,22:15,19.4,56,17.4,19.1
 2002/10/24,22:30,19.5,57,17.6,19.1
 2002/10/24,22:45,19.6,57,17,19.1
 2002/10/24,23:00,19.6,57,17.1,19.1
 2002/10/24,23:15,19.6,57,17.1,19.2
 2002/10/24,23:30,19.6,56,18,19.2
 2002/10/24,23:45,19.5,58,17.5,19.2
 2002/10/25, 0:00,19.3,59,17.5,19.2
 2002/10/25, 0:15,19.2,58,17.1,19.2
 2002/10/25, 0:30,19.1,59,17,19.2
 2002/10/25, 0:45,19,59,16.7,19.2
 2002/10/25, 1:00,18.8,58,17.2,19.2
 2002/10/25, 1:15,18.7,59,16.8,19.2
 2002/10/25, 1:30,18.7,59,16.7,19.2
 2002/10/25, 1:45,18.6,60,16.7,19.2
 2002/10/25, 2:00,18.6,60,16.7,19.2
 2002/10/25, 2:15,18.6,60,16.6,19.2
 2002/10/25, 2:30,18.5,60,16.7,19.2
 2002/10/25, 2:45,18.5,60,16.3,19.2
 2002/10/25, 3:00,18.4,60,16.4,19.2
 2002/10/25, 3:15,18.3,60,16.3,19.2
 2002/10/25, 3:30,18.3,59,16.1,19.2
 2002/10/25, 3:45,18.2,59,16.3,19.2
 2002/10/25, 4:00,18.2,59,16.3,19.2
 2002/10/25, 4:15,18.1,58,16.2,19.2
 2002/10/25, 4:30,18.1,59,16.1,19.2
 2002/10/25, 4:45,18,59,16,19.2
 2002/10/25, 5:00,18,59,15.7,19.1
 2002/10/25, 5:15,18,60,16,19.1
 2002/10/25, 5:30,18,59,16.3,19.1
 2002/10/25, 5:45,18,59,16,19.1
 2002/10/25, 6:00,17.9,59,16.2,19.1
 2002/10/25, 6:15,18,59,15.5,17.8
 2002/10/25, 6:30,18.2,59,15.6,17.6
 2002/10/25, 6:45,18.2,59,16.2,17.6
 2002/10/25, 7:00,18.3,59,16.2,17.7
 2002/10/25, 7:15,18.4,59,16.5,17.7
 2002/10/25, 7:30,18.3,59,16.5,17.7
 2002/10/25, 7:45,18.6,59,16.7,17.7
 2002/10/25, 8:00,18.6,59,17.1,17.6
 2002/10/25, 8:15,18.8,58,17.3,18
 2002/10/25, 8:30,19,57,17.4,18
 2002/10/25, 8:45,19.3,57,17.5,18
 2002/10/25, 9:00,19.5,55,17.7,18
 2002/10/25, 9:15,19.9,53,17.9,18
 2002/10/25, 9:30,20.1,52,18.1,18
 2002/10/25, 9:45,20.5,50,18.5,18.1
 2002/10/25,10:00,20.5,49,18.5,18.1
 2002/10/25,10:15,20.6,49,19.1,18
 2002/10/25,10:30,20.5,48,19.2,18
 2002/10/25,10:45,20.6,47,19.3,18
 2002/10/25,11:00,20.7,43,19.7,18
 2002/10/25,11:15,20.8,44,20.1,18.1
 2002/10/25,11:30,21.1,41,20.7,18.1
 2002/10/25,11:45,21.4,40,21.2,18.1
 2002/10/25,12:00,21.2,43,21.3,18.2
 2002/10/25,12:15,20.9,44,21.6,18.2
 2002/10/25,12:30,21.3,45,22.3,18.2
 2002/10/25,12:45,21.4,45,22.2,18.2
 2002/10/25,13:00,21.4,43,22.8,18.3
 2002/10/25,13:15,21.2,42,21.9,18.3
 2002/10/25,13:30,21.4,43,22,18.4
 2002/10/25,13:45,21.2,45,22,18.4
 2002/10/25,14:00,21.3,45,22.2,18.4
 2002/10/25,14:15,21.9,45,22.1,18.6
 2002/10/25,14:30,21.8,43,22,18.7
 2002/10/25,14:45,22,44,22.2,18.7
 2002/10/25,15:00,21.7,44,22.1,18.8
 2002/10/25,15:15,21.9,44,22.2,18.8
 2002/10/25,15:30,21.9,44,22.2,18.8
 2002/10/25,15:45,21.9,44,22,18.9
 2002/10/25,16:00,22,44,21.8,18.9
 2002/10/25,16:15,22,46,21.3,19
 2002/10/25,16:30,21.9,46,20.9,19
 2002/10/25,16:45,21.8,48,20.4,19
 2002/10/25,17:00,21.7,47,20,19.1
 2002/10/25,17:15,21.6,47,19.6,19.1
 2002/10/25,17:30,21.3,47,19.2,19.2
 2002/10/25,17:45,21.1,46,19,19.2
 2002/10/25,18:00,20.8,47,18.7,19.2
 2002/10/25,18:15,20.7,47,18.5,19.3
 2002/10/25,18:30,20.7,47,18.6,19.3
 2002/10/25,18:45,20.8,48,18.9,19.4
 2002/10/25,19:00,21.1,49,19.4,19.4
 2002/10/25,19:15,21.2,50,19.3,19.4
 2002/10/25,19:30,21.3,50,19,19.5
 2002/10/25,19:45,21.2,51,19.5,19.5
 2002/10/25,20:00,21.2,52,19.4,19.5
 2002/10/25,20:15,21,50,18.9,19.6
 2002/10/25,20:30,20.9,49,18.8,19.6
 2002/10/25,20:45,20.8,49,18.9,19.6
 2002/10/25,21:00,20.5,50,18.8,19.6
 2002/10/25,21:15,20.5,48,18.8,19.7
 2002/10/25,21:30,20.5,50,18.5,19.7
 2002/10/25,21:45,20.4,49,17.6,19.7
 2002/10/25,22:00,20.3,50,17.2,19.7
 2002/10/25,22:15,20.3,49,16.9,19.8
 2002/10/25,22:30,20.4,52,16.8,19.8
 2002/10/25,22:45,20.6,52,16.8,19.8
 2002/10/25,23:00,20.6,52,16.9,19.8
 2002/10/25,23:15,20.5,52,17.1,19.8
 2002/10/25,23:30,20.5,52,17.5,19.9
 2002/10/25,23:45,20.4,52,17.8,19.9
 2002/10/26, 0:00,20.3,54,16.2,19.9
 2002/10/26, 0:15,20.2,54,17.1,19.9
 2002/10/26, 0:30,20,55,16.5,19.3
 2002/10/26, 0:45,19.9,54,16.7,19.3
 2002/10/26, 1:00,19.7,55,16.5,19.3
 2002/10/26, 1:15,19.6,55,16.6,19.3
 2002/10/26, 1:30,19.5,55,15.9,19.3
 2002/10/26, 1:45,19.4,56,15.7,19.3
 2002/10/26, 2:00,19.3,55,16.1,19.3
 2002/10/26, 2:15,19.2,55,16.2,19.3
 2002/10/26, 2:30,19.1,56,15.7,19.4
 2002/10/26, 2:45,19,56,16,19.4
 2002/10/26, 3:00,19,56,15.7,19.4
 2002/10/26, 3:15,18.9,56,15.7,19.4
 2002/10/26, 3:30,18.8,56,15.7,19.4
 2002/10/26, 3:45,18.7,56,15.7,19.4
 2002/10/26, 4:00,18.7,56,15.5,19.4
 2002/10/26, 4:15,18.6,56,15.6,19.4
 2002/10/26, 4:30,18.6,56,15.3,19.4
 2002/10/26, 4:45,18.6,56,15.6,19.4
 2002/10/26, 5:00,18.5,56,15.5,19.4
 2002/10/26, 5:15,18.5,57,14.9,19.3
 2002/10/26, 5:30,18.4,57,14.9,19.3
 2002/10/26, 5:45,18.4,56,15.1,19.3
 2002/10/26, 6:00,18.3,56,15.1,19.3
 2002/10/26, 6:15,18.3,56,15.1,19.3
 2002/10/26, 6:30,18.2,56,14.8,19.3
 2002/10/26, 6:45,18.2,56,15.3,19.3
 2002/10/26, 7:00,18.2,57,15.4,19.3
 2002/10/26, 7:15,18.2,57,14.9,19.3
 2002/10/26, 7:30,18.3,57,15.1,17.6
 2002/10/26, 7:45,18.3,58,15.4,17.6
 2002/10/26, 8:00,18.6,60,15.5,17.6
 2002/10/26, 8:15,18.9,60,16,17.6
 2002/10/26, 8:30,19,59,16.4,17.6
 2002/10/26, 8:45,18.9,59,17.1,17.7
 2002/10/26, 9:00,18.8,59,17.3,17.7
 2002/10/26, 9:15,19,60,17.3,18.3
 2002/10/26, 9:30,18.9,60,17.3,18.3
 2002/10/26, 9:45,18.9,60,17.3,18.2
 2002/10/26,10:00,18.7,60,17.4,18.2
 2002/10/26,10:15,18.8,59,17.6,18.2
 2002/10/26,10:30,18.7,60,17.8,18.2
 2002/10/26,10:45,18.9,60,17.8,18.2
 2002/10/26,11:00,18.9,61,17.8,18.2
 2002/10/26,11:15,18.9,62,17.9,18.2
 2002/10/26,11:30,19.2,61,18.1,18.3
 2002/10/26,11:45,19.2,62,18.4,18.3
 2002/10/26,12:00,19.1,63,18.4,18.3
 2002/10/26,12:15,19.2,61,18.5,18.3
 2002/10/26,12:30,19.4,63,18.5,18.3
 2002/10/26,12:45,19.6,65,18.4,18.3
 2002/10/26,13:00,19.8,64,18.4,18.3
 2002/10/26,13:15,19.9,62,18.5,18.3
 2002/10/26,13:30,19.6,62,18.5,18.4
 2002/10/26,13:45,19.5,62,18.5,17.8
 2002/10/26,14:00,19.6,63,18.6,17.9
 2002/10/26,14:15,19.6,62,18.8,17.9
 2002/10/26,14:30,19.7,62,18.9,17.9
 2002/10/26,14:45,19.6,62,19,18
 2002/10/26,15:00,19.6,62,18.7,18
 2002/10/26,15:15,19.6,63,18.6,18
 2002/10/26,15:30,19.6,63,18.7,18
 2002/10/26,15:45,19.6,63,18.7,18.1
 2002/10/26,16:00,19.6,63,18.7,18.1
 2002/10/26,16:15,19.7,63,18.8,18.1
 2002/10/26,16:30,19.7,63,18.8,18.2
 2002/10/26,16:45,19.7,63,18.8,18.2
 2002/10/26,17:00,19.9,63,18.4,18.2
 2002/10/26,17:15,19.8,63,17.7,18.2
 2002/10/26,17:30,19.9,63,17.2,18.3
 2002/10/26,17:45,19.9,63,17.1,18.3
 2002/10/26,18:00,19.9,63,17.5,18.3
 2002/10/26,18:15,20.1,62,17.2,18.3
 2002/10/26,18:30,20.2,62,17.4,18.4
 2002/10/26,18:45,20.4,63,17,18.4
 2002/10/26,19:00,20.5,63,16.4,18.4
 2002/10/26,19:15,20.4,62,16.7,18.4
 2002/10/26,19:30,20.2,61,16.9,18.5
 2002/10/26,19:45,20.2,61,17.4,18.5
 2002/10/26,20:00,20.1,61,17.9,18.5